Flag for Germany Weather past 2 weeks in Stendal, Saxony-Anhalt, Germany

Now
40 °F

Overcast.


Feels Like: 37 °F
Forecast: 36 / 52 °F
Wind: 3 mph from West

Location: Magdeburg

Current Time: Mar 6, 2015 at 7:16:55 AM

Latest Report: Mar 6, 2015 at 6:00 AM


Visibility: 9 mi

Pressure: 30.57 "Hg

Humidity: 83%

Dew point: 35 °F

Location of StendalLocation

Historic Weather in Stendal — Graph

°F

Stendal temperature yesterday

Maximum temperature yesterday: 44 °F (at 4:00 PM)
Minimum temperature yesterday: 36 °F (at 8:00 AM)
Average temperature yesterday: 40 °F

Past Weeks' High & Low Weather Summary

 TemperatureHumidityPressure
High49 °F (Feb 20, 4:00 PM)97% (Feb 23, 11:00 AM)30.58 "Hg (Feb 23, 11:00 AM)
Low26 °F (Feb 19, 7:00 AM)49% (Feb 26, 5:00 PM)29.38 "Hg (Feb 21, 11:00 AM)
Average39 °F78%29.91 "Hg
* Reported Feb 19 6:00 AM — Mar 6 6:00 AM, Stendal, Weather by CustomWeather, © 2015

Note: Actual official high and low records may vary slightly from our data, if they occured in-between our weather recording intervals... More about our weather records

Advertising

Stendal weather history for previous 24 hours

 ConditionsComfort  
Time TempWeatherWind HumidityBarometerVisibility
6:00 AM
Fri, Mar 6
40 °FOvercast.3 mph83%30.57 "Hg9 mi
5:00 AM39 °FPassing clouds.2 mph83%30.56 "Hg9 mi
4:00 AM40 °FOvercast.2 mph83%30.56 "Hg11 mi
3:00 AM40 °FOvercast.2 mph82%30.56 "Hg12 mi
2:00 AM40 °FOvercast.2 mph84%30.58 "Hg12 mi
1:00 AM40 °FOvercast.2 mph81%30.57 "Hg13 mi
12:00 AM40 °FOvercast.2 mph83%30.58 "Hg11 mi
9:00 PM
Thu, Mar 5
40 °FPassing clouds.2 mph82%30.57 "Hg19 mi
8:00 PM40 °FPassing clouds.2 mph83%30.57 "Hg16 mi
7:00 PM41 °FOvercast.2 mph85%30.57 "Hg16 mi
6:00 PM42 °FSprinkles. Overcast.3 mph83%30.56 "Hg12 mi
5:00 PM42 °FOvercast.2 mph84%30.55 "Hg25 mi
4:00 PM44 °FOvercast.2 mph74%30.54 "Hg25 mi
3:00 PM42 °FOvercast.3 mph82%30.54 "Hg22 mi
2:00 PM44 °FOvercast.3 mph75%30.53 "Hg22 mi
1:00 PM41 °FSprinkles. Overcast.5 mph86%30.54 "Hg5 mi
12:00 PM43 °FOvercast.3 mph75%30.53 "Hg22 mi
11:00 AM42 °FOvercast.3 mph80%30.53 "Hg22 mi
9:00 AM38 °FOvercast.3 mph85%30.52 "Hg22 mi
8:00 AM36 °FPartly sunny.2 mph86%30.51 "Hg19 mi
7:00 AM36 °FOvercast.2 mph88%30.49 "Hg19 mi
Weather by CustomWeather, © 2015

See weather overviewHow to use our weather pages